"Pseudo-MPEC" for SWC0580

Created 2024 Jun 4 10:22:11 UT using Find_Orb

Click here for an explanation of pseudo-MPECs

 
 Astrometry: 
     SWC0580*KB2024 05 15R*`EqQ)V^5D8OiqVaT)LpAstrometryADredacted;;Iv;c'_o1EY05
     SWC0580 KB2024 05 15:\Qxl5g6'YRr@-w3L2hAb]^iCSThG6?E\.clickfrj],B/hereL)Y05
     SWC0580 KB2024 05 151Iq8A)kc4for,SBOU2HTn1A@!XLwexplanationgy'Sxkx[q:4;:Y05

Station data:
(Y05) SONEAR Wykrota-CEAMIG, Serra da Piedade  (S19.824251 W43.690000)
   Brazil.  Observer C. Jacques. 0.45-m f/2.9 reflector + CMO.

Orbital elements:  SWC0580
   Perihelion 2024 Mar 15.93587 +/- 46.3 TT = 22:27:39 (JD 2460385.43587)
Epoch 2024 May 15.0 TT = JDT 2460445.5   Earth MOID: 0.0180   Ju: 0.2442
M   3.76658415 +/- 18               Ma: 0.0301   Sa: 0.6574      AutoNEOCP
n   0.06270937 +/- 0.154            Peri.  286.76700 +/- 60
a   6.27452804 +/- 10.3             Node   229.51577 +/- 19
e   0.8667707 +/- 0.249             Incl.    2.63714 +/- 1.5
P  15.72                   H 22.11  G  0.15   U 11.5  SR
q 0.83595051 +/- 0.347    Q 11.7131055 +/- 76.1           (J2000 ecliptic)
From 3 observations 2024 May 15 (41.5 min); mean residual 0".31
Residuals in arcseconds: 
240515 Y05  .30-  .01-    240515 Y05  .62+  .03+    240515 Y05  .32-  .02-    

Ephemerides (geocentric):
Date (UTC) HH   RA             Dec           delta  r     elong  mag " sig PA
---- --------  ------------   ------------  ------ ------ -----  --- --------
2024 06 04 10  15 11 55.220   -15 47 09.09  .55865 1.5413 155.9 22.6  52d  98
2024 06 04 11  15 11 56.397   -15 47 09.62  .55926 1.5418 155.8 22.6  52d  98
2024 06 04 12  15 11 57.576   -15 47 10.16  .55986 1.5423 155.8 22.6  52d  98
2024 06 04 13  15 11 58.756   -15 47 10.71  .56047 1.5428 155.7 22.7  52d  98
2024 06 04 14  15 11 59.937   -15 47 11.29  .56108 1.5433 155.7 22.7  52d  98
2024 06 04 15  15 12 01.118   -15 47 11.88  .56168 1.5438 155.7 22.7  52d  98
2024 06 04 16  15 12 02.301   -15 47 12.49  .56229 1.5443 155.6 22.7  52d  98
2024 06 04 17  15 12 03.485   -15 47 13.11  .56290 1.5448 155.6 22.7  52d  98
2024 06 04 18  15 12 04.669   -15 47 13.75  .56351 1.5453 155.6 22.7  52d  98
2024 06 04 19  15 12 05.855   -15 47 14.41  .56412 1.5458 155.5 22.7  52d  98
2024 06 04 20  15 12 07.041   -15 47 15.08  .56473 1.5463 155.5 22.7  52d  98
2024 06 04 21  15 12 08.229   -15 47 15.77  .56534 1.5468 155.5 22.7  52d  98
2024 06 04 22  15 12 09.417   -15 47 16.48  .56594 1.5473 155.4 22.7  52d  98
2024 06 04 23  15 12 10.607   -15 47 17.21  .56655 1.5478 155.4 22.7  52d  98
2024 06 05 00  15 12 11.797   -15 47 17.95  .56716 1.5483 155.4 22.7  52d  98
2024 06 05 01  15 12 12.989   -15 47 18.70  .56777 1.5488 155.3 22.7  52d  98
2024 06 05 02  15 12 14.181   -15 47 19.48  .56838 1.5493 155.3 22.7  52d  98
2024 06 05 03  15 12 15.375   -15 47 20.27  .56899 1.5498 155.3 22.7  53d  98
2024 06 05 04  15 12 16.569   -15 47 21.07  .56961 1.5503 155.2 22.7  53d  98
2024 06 05 05  15 12 17.764   -15 47 21.90  .57022 1.5508 155.2 22.7  53d  98
2024 06 05 06  15 12 18.961   -15 47 22.74  .57083 1.5513 155.1 22.7  53d  98
2024 06 05 07  15 12 20.158   -15 47 23.59  .57144 1.5518 155.1 22.7  53d  98
2024 06 05 08  15 12 21.357   -15 47 24.46  .57205 1.5523 155.1 22.7  53d  98
2024 06 05 09  15 12 22.556   -15 47 25.35  .57266 1.5528 155.0 22.7  53d  98
2024 06 05 10  15 12 23.757   -15 47 26.26  .57328 1.5533 155.0 22.7  53d  98
2024 06 05 11  15 12 24.958   -15 47 27.18  .57389 1.5538 155.0 22.7  53d  98
2024 06 05 12  15 12 26.161   -15 47 28.11  .57450 1.5543 154.9 22.7  53d  98
2024 06 05 13  15 12 27.364   -15 47 29.07  .57511 1.5548 154.9 22.7  53d  98
2024 06 05 14  15 12 28.569   -15 47 30.04  .57573 1.5553 154.9 22.7  53d  98
2024 06 05 15  15 12 29.774   -15 47 31.02  .57634 1.5558 154.8 22.7  53d  98
2024 06 05 16  15 12 30.981   -15 47 32.03  .57695 1.5563 154.8 22.7  53d  98
2024 06 05 17  15 12 32.188   -15 47 33.04  .57757 1.5568 154.8 22.8  53d  98
2024 06 05 18  15 12 33.397   -15 47 34.08  .57818 1.5573 154.7 22.8  53d  98
2024 06 05 19  15 12 34.607   -15 47 35.13  .57880 1.5578 154.7 22.8  53d  98
2024 06 05 20  15 12 35.818   -15 47 36.19  .57941 1.5582 154.7 22.8  53d  98
2024 06 05 21  15 12 37.029   -15 47 37.28  .58003 1.5587 154.6 22.8  53d  98
2024 06 05 22  15 12 38.242   -15 47 38.38  .58064 1.5592 154.6 22.8  53d  98
2024 06 05 23  15 12 39.456   -15 47 39.49  .58126 1.5597 154.5 22.8  53d  98
2024 06 06 00  15 12 40.671   -15 47 40.62  .58187 1.5602 154.5 22.8  53d  98
2024 06 06 01  15 12 41.887   -15 47 41.77  .58249 1.5607 154.5 22.8  53d  98
2024 06 06 02  15 12 43.104   -15 47 42.93  .58311 1.5612 154.4 22.8  53d  98
2024 06 06 03  15 12 44.322   -15 47 44.11  .58372 1.5617 154.4 22.8  53d  98
2024 06 06 04  15 12 45.541   -15 47 45.30  .58434 1.5622 154.4 22.8  53d  98
2024 06 06 05  15 12 46.761   -15 47 46.51  .58496 1.5627 154.3 22.8  53d  98
2024 06 06 06  15 12 47.982   -15 47 47.73  .58558 1.5632 154.3 22.8  53d  98
2024 06 06 07  15 12 49.205   -15 47 48.98  .58619 1.5637 154.3 22.8  53d  98
2024 06 06 08  15 12 50.428   -15 47 50.23  .58681 1.5642 154.2 22.8  53d  98
2024 06 06 09  15 12 51.653   -15 47 51.51  .58743 1.5647 154.2 22.8  53d  98